period_start,C,m1,H,J0,J1,J2,J3,J4,J5,JA,JB,JC,JD,JJ,JK,JN,#
2018-06-03 00:04:01,0.00,0.01,0.00,23.10,26.85,29.98,13.91,46.29,1019.02,2028.99,3431.95,3090.03,3559.98,599.54,596.83,1.21,0000 0000 0000 0000 000000
2018-06-03 00:09:03,0.00,0.01,0.00,23.13,26.85,30.00,13.95,46.17,1018.89,2028.99,3431.72,3090.02,3559.93,600.00,597.07,1.26,0000 0000 0000 0000 000000
2018-06-03 00:14:04,0.01,0.01,0.00,23.18,26.85,29.97,13.95,46.17,1018.90,2028.98,3431.29,3090.00,3559.46,599.88,596.87,1.31,0000 0000 0000 0000 000000
2018-06-03 00:19:05,0.00,0.01,0.00,23.20,26.87,29.98,13.98,46.21,1018.66,2028.98,3431.15,3090.00,3559.12,600.29,597.14,1.36,0000 0000 0000 0000 000000
2018-06-03 00:24:06,0.00,0.01,0.00,23.21,26.87,29.98,13.96,46.27,1018.65,2028.95,3430.99,3089.94,3559.02,599.91,596.69,1.41,0000 0000 0000 0000 000000
2018-06-03 00:29:07,0.03,0.01,0.00,23.19,26.88,29.99,13.97,46.23,1018.61,2028.93,3430.42,3089.40,3558.92,599.94,596.70,1.46,0000 0000 0000 0000 000000
2018-06-03 00:34:08,0.01,0.01,0.00,23.21,26.90,30.01,13.90,46.29,1018.57,2028.96,3430.02,3089.05,3558.61,600.03,596.74,1.51,0000 0000 0000 0000 000000
2018-06-03 00:39:10,0.01,0.01,0.00,23.22,26.91,30.01,14.05,46.35,1018.57,2028.92,3430.00,3089.01,3558.06,599.92,596.67,1.56,0000 0000 0000 0000 000000
2018-06-03 00:44:11,-0.03,0.01,0.00,23.24,26.92,30.02,13.96,46.38,1018.57,2028.66,3429.98,3089.00,3558.00,599.92,596.66,1.61,0000 0000 0000 0000 000000
2018-06-03 00:49:13,0.02,0.01,0.00,23.27,26.94,30.03,13.99,46.35,1018.57,2028.65,3429.94,3088.99,3557.99,600.30,596.68,1.66,0000 0000 0000 0000 000000
2018-06-03 00:54:14,0.00,0.01,0.00,23.28,26.95,30.08,13.98,46.36,1018.58,2028.71,3429.61,3088.98,3557.98,600.15,596.78,1.71,0000 0000 0000 0000 000000
2018-06-03 00:59:15,-0.00,0.01,0.00,23.31,26.96,30.06,13.96,46.47,1018.59,2028.57,3429.10,3088.90,3557.80,599.86,596.49,1.76,0000 0000 0000 0000 000000
2018-06-03 01:04:17,0.00,0.01,0.00,23.33,26.97,30.07,13.95,46.46,1018.58,2028.25,3429.02,3088.35,3557.17,600.15,596.48,1.81,0000 0000 0000 0000 000000
2018-06-03 01:09:18,-0.00,0.01,0.00,23.36,27.00,30.08,13.92,46.37,1018.58,2028.09,3428.93,3088.01,3557.00,600.01,596.56,1.86,0000 0000 0000 0000 000000
2018-06-03 01:14:20,0.00,0.01,0.00,23.38,27.01,30.09,13.95,46.38,1018.57,2028.03,3428.48,3088.00,3556.95,600.00,596.37,1.91,0000 0000 0000 0000 000000
2018-06-03 01:19:21,0.01,0.01,0.00,23.42,27.02,30.11,14.01,46.42,1018.57,2028.03,3428.04,3087.98,3556.59,600.06,596.40,1.96,0000 0000 0000 0000 000000
2018-06-03 01:24:22,0.00,0.01,0.00,23.43,27.05,30.06,13.91,46.42,1018.56,2028.01,3428.00,3087.84,3556.05,600.10,596.30,2.01,0000 0000 0000 0000 000000
2018-06-03 01:29:23,0.02,0.01,0.00,23.47,27.06,30.11,13.97,46.45,1018.54,2028.00,3427.60,3087.16,3555.99,600.35,596.64,2.06,0000 0000 0000 0000 000000
2018-06-03 01:34:24,0.01,0.01,0.00,23.51,27.07,30.10,13.99,46.38,1018.42,2028.00,3427.13,3087.01,3555.89,600.23,596.36,2.11,0000 0000 0000 0000 000000
2018-06-03 01:39:25,0.01,0.01,0.00,23.54,27.10,30.10,13.86,46.42,1018.44,2028.00,3427.01,3087.00,3555.44,599.75,595.85,2.17,0000 0000 0000 0000 000000
2018-06-03 01:44:26,0.00,0.01,0.00,23.57,27.12,30.12,13.90,46.37,1018.22,2028.00,3426.99,3086.98,3555.03,600.08,595.80,2.22,0000 0000 0000 0000 000000
2018-06-03 01:49:28,0.01,0.01,0.00,23.61,27.14,30.11,13.86,46.33,1018.14,2028.00,3426.75,3086.68,3555.00,599.92,595.64,2.27,0000 0000 0000 0000 000000
2018-06-03 01:54:29,0.02,0.02,0.00,23.64,27.16,30.12,13.86,46.31,1018.10,2027.99,3426.05,3086.05,3554.81,599.88,595.49,2.32,0000 0000 0000 0000 000000
2018-06-03 01:59:30,0.00,0.02,0.00,23.67,27.18,30.12,13.90,46.32,1018.09,2027.97,3426.00,3086.00,3554.23,599.75,595.35,2.37,0000 0000 0000 0000 000000
2018-06-03 02:04:31,0.00,0.02,0.00,23.72,27.21,30.11,13.83,46.33,1018.09,2027.96,3425.95,3085.99,3554.03,599.95,595.44,2.42,0000 0000 0000 0000 000000
2018-06-03 02:09:32,-0.01,0.02,0.00,23.76,27.23,30.08,13.93,46.38,1018.11,2027.77,3425.49,3085.79,3553.98,600.24,595.70,2.47,0000 0000 0000 0000 000000
2018-06-03 02:14:34,-0.01,0.02,0.00,23.79,27.25,30.09,13.84,46.20,1018.13,2027.37,3425.04,3085.26,3553.77,600.30,595.65,2.52,0000 0000 0000 0000 000000
2018-06-03 02:19:35,-0.01,0.02,0.00,23.82,27.27,30.11,13.84,46.28,1018.11,2027.11,3425.00,3085.04,3553.08,599.85,595.06,2.57,0000 0000 0000 0000 000000
2018-06-03 02:24:36,-0.00,0.02,0.00,23.86,27.31,30.10,13.88,46.30,1018.08,2027.01,3424.98,3085.00,3553.00,599.87,595.07,2.62,0000 0000 0000 0000 000000
2018-06-03 02:29:37,0.01,0.02,0.00,23.90,27.33,30.13,13.95,46.32,1018.09,2027.03,3424.64,3084.98,3552.97,600.30,595.43,2.67,0000 0000 0000 0000 000000
2018-06-03 02:34:38,0.00,0.02,0.00,23.92,27.35,30.16,13.80,46.30,1018.09,2027.00,3424.13,3084.87,3552.77,599.94,594.94,2.72,0000 0000 0000 0000 000000
2018-06-03 02:39:39,0.02,0.02,0.00,23.96,27.38,30.17,13.91,46.26,1018.09,2027.00,3424.00,3084.15,3552.10,600.20,595.26,2.77,0000 0000 0000 0000 000000
2018-06-03 02:44:40,0.00,0.02,0.00,24.01,27.41,30.17,13.78,46.27,1018.08,2026.99,3423.97,3084.01,3552.00,599.47,594.44,2.82,0000 0000 0000 0000 000000
2018-06-03 02:49:41,0.01,0.02,0.00,24.05,27.44,30.21,13.86,46.36,1018.08,2026.99,3423.45,3083.97,3551.92,599.90,594.74,2.87,0000 0000 0000 0000 000000
2018-06-03 02:54:43,0.01,0.02,0.00,24.08,27.46,30.22,13.89,46.35,1018.05,2026.94,3423.06,3083.84,3551.33,600.06,594.76,2.92,0000 0000 0000 0000 000000
2018-06-03 02:59:44,-0.01,0.02,0.00,24.12,27.49,30.23,13.79,46.38,1018.03,2026.80,3423.00,3083.17,3551.02,599.71,594.36,2.97,0000 0000 0000 0000 000000
2018-06-03 03:04:46,-0.01,0.02,0.00,24.16,27.52,30.25,13.86,46.33,1017.95,2026.35,3422.68,3083.00,3550.91,600.01,594.41,3.02,0000 0000 0000 0000 000000
2018-06-03 03:09:47,-0.00,0.02,0.00,24.20,27.55,30.26,13.88,46.40,1018.05,2026.06,3422.04,3082.99,3550.14,599.71,594.17,3.07,0000 0000 0000 0000 000000
2018-06-03 03:14:48,0.00,0.02,0.00,24.24,27.58,30.29,13.90,46.38,1018.08,2026.02,3422.00,3082.77,3550.01,600.05,594.41,3.12,0000 0000 0000 0000 000000
2018-06-03 03:19:49,0.02,0.02,0.00,24.28,27.61,30.32,13.86,46.35,1018.07,2026.00,3421.60,3082.05,3549.90,599.98,594.30,3.17,0000 0000 0000 0000 000000
2018-06-03 03:24:50,0.01,0.02,0.00,24.32,27.64,30.34,14.02,46.33,1018.06,2026.00,3421.08,3082.00,3549.35,600.32,594.55,3.22,0000 0000 0000 0000 000000
2018-06-03 03:29:52,0.00,0.02,0.00,24.35,27.66,30.38,13.97,46.40,1018.05,2025.99,3421.00,3081.98,3549.01,600.16,594.41,3.27,0000 0000 0000 0000 000000
2018-06-03 03:34:53,0.01,0.02,0.00,24.39,27.70,30.42,13.83,46.37,1018.04,2025.98,3420.95,3081.53,3548.96,599.97,593.99,3.32,0000 0000 0000 0000 000000
2018-06-03 03:39:54,0.02,0.02,0.00,24.43,27.73,30.43,13.87,46.33,1018.07,2025.93,3420.36,3081.05,3548.43,599.95,593.94,3.37,0000 0000 0000 0000 000000
2018-06-03 03:44:56,-0.04,0.02,0.00,24.47,27.76,30.46,13.84,46.35,1017.92,2025.55,3420.03,3080.99,3548.02,599.97,593.84,3.42,0000 0000 0000 0000 000000
2018-06-03 03:49:57,0.02,0.02,0.00,24.51,27.79,30.50,13.76,46.31,1017.63,2025.11,3419.34,3080.28,3547.39,599.89,593.50,3.47,0000 0000 0000 0000 000000
2018-06-03 03:54:58,0.00,0.02,0.00,24.53,27.82,30.53,13.83,46.33,1017.59,2025.02,3418.92,3080.00,3547.00,600.10,593.56,3.52,0000 0000 0000 0000 000000
2018-06-03 03:59:59,0.02,0.02,0.00,24.57,27.85,30.55,13.79,46.29,1017.60,2025.00,3418.23,3079.90,3546.76,599.85,593.25,3.57,0000 0000 0000 0000 000000
2018-06-03 04:05:00,0.02,0.02,0.00,24.60,27.88,30.58,13.73,46.25,1017.58,2025.00,3418.01,3079.28,3546.09,599.84,593.29,3.62,0000 0000 0000 0000 000000
2018-06-03 04:10:02,0.00,0.02,0.00,24.63,27.91,30.63,13.82,46.21,1017.43,2025.00,3417.97,3079.01,3545.99,599.58,592.81,3.67,0000 0000 0000 0000 000000
2018-06-03 04:15:03,0.01,0.03,0.00,24.66,27.94,30.65,13.85,46.26,1017.17,2024.99,3417.37,3078.98,3545.83,600.11,592.96,3.72,0000 0000 0000 0000 000000
2018-06-03 04:20:04,0.02,0.03,0.00,24.70,27.97,30.68,13.80,46.23,1017.11,2024.97,3417.01,3078.69,3545.15,600.00,592.97,3.77,0000 0000 0000 0000 000000
2018-06-03 04:25:06,-0.01,0.03,0.00,24.73,28.01,30.73,13.84,46.33,1017.11,2024.79,3416.97,3078.11,3544.99,600.02,592.87,3.82,0000 0000 0000 0000 000000
2018-06-03 04:30:07,-0.02,0.03,0.00,24.75,28.04,30.75,13.81,46.20,1017.11,2024.36,3416.31,3078.00,3544.63,599.97,592.87,3.87,0000 0000 0000 0000 000000
2018-06-03 04:35:08,-0.00,0.03,0.00,24.78,28.06,30.80,13.84,46.24,1017.10,2024.11,3416.00,3077.83,3544.04,599.96,592.72,3.92,0000 0000 0000 0000 000000
2018-06-03 04:40:09,0.02,0.03,0.00,24.83,28.10,30.82,13.82,46.22,1017.10,2024.02,3415.95,3077.13,3543.98,600.00,592.75,3.97,0000 0000 0000 0000 000000
2018-06-03 04:45:11,0.02,0.03,0.00,24.85,28.13,30.86,13.80,46.18,1017.10,2024.00,3415.27,3077.00,3543.51,600.05,592.75,4.02,0000 0000 0000 0000 000000
2018-06-03 04:50:12,0.00,0.03,0.00,24.88,28.16,30.90,13.78,46.24,1017.10,2024.00,3415.00,3076.96,3543.01,599.87,592.33,4.07,0000 0000 0000 0000 000000
2018-06-03 04:55:14,0.02,0.03,0.00,24.92,28.18,30.90,13.78,46.19,1017.10,2024.00,3414.78,3076.37,3542.89,599.93,592.36,4.12,0000 0000 0000 0000 000000
2018-06-03 05:00:15,0.02,0.03,0.00,24.95,28.21,30.94,13.77,46.13,1017.08,2023.95,3414.10,3076.01,3542.20,599.87,592.28,4.17,0000 0000 0000 0000 000000
2018-06-03 05:05:16,-0.03,0.03,0.00,24.98,28.24,30.97,13.82,46.16,1017.07,2023.68,3413.99,3075.99,3542.00,600.15,592.49,4.22,0000 0000 0000 0000 000000
2018-06-03 05:10:17,-0.03,0.03,0.00,25.01,28.27,31.03,13.79,46.16,1017.08,2023.30,3413.88,3075.83,3541.87,599.99,592.14,4.27,0000 0000 0000 0000 000000
2018-06-03 05:15:19,0.03,0.03,0.00,25.03,28.30,31.04,13.83,46.17,1017.07,2023.04,3413.10,3075.08,3541.14,600.14,592.44,4.32,0000 0000 0000 0000 000000
2018-06-03 05:20:20,0.00,0.03,0.00,25.06,28.33,31.06,13.89,46.23,1016.65,2023.01,3412.99,3075.00,3540.99,600.33,592.31,4.37,0000 0000 0000 0000 000000
2018-06-03 05:25:21,0.03,0.03,0.00,25.07,28.36,31.09,13.90,46.24,1016.63,2023.00,3412.44,3074.79,3540.59,600.43,592.36,4.42,0000 0000 0000 0000 000000
2018-06-03 05:30:22,0.02,0.03,0.00,25.07,28.39,31.15,13.81,46.13,1016.65,2022.99,3412.01,3074.13,3540.04,600.22,592.15,4.47,0000 0000 0000 0000 000000
2018-06-03 05:35:23,0.01,0.03,0.00,25.07,28.41,31.17,13.84,46.17,1016.64,2022.96,3411.87,3074.00,3539.98,600.01,591.90,4.52,0000 0000 0000 0000 000000
2018-06-03 05:40:25,0.02,0.03,0.00,25.10,28.45,31.18,13.79,46.17,1016.62,2022.91,3411.13,3073.85,3539.35,600.11,591.91,4.58,0000 0000 0000 0000 000000
2018-06-03 05:45:26,-0.02,0.03,0.00,25.12,28.47,31.24,13.83,46.13,1016.62,2022.55,3411.00,3073.22,3539.00,600.13,591.86,4.63,0000 0000 0000 0000 000000
2018-06-03 05:50:27,-0.02,0.03,0.00,25.15,28.50,31.29,13.85,46.20,1016.61,2022.14,3410.64,3073.00,3538.93,600.23,591.90,4.68,0000 0000 0000 0000 000000
2018-06-03 05:55:29,0.01,0.03,0.00,25.15,28.53,31.33,13.82,46.18,1016.47,2022.03,3410.05,3072.96,3538.27,600.08,591.75,4.73,0000 0000 0000 0000 000000
2018-06-03 06:00:30,0.01,0.03,0.00,25.17,28.55,31.39,13.80,46.21,1016.32,2022.02,3410.00,3072.60,3538.00,599.99,591.51,4.78,0000 0000 0000 0000 000000
2018-06-03 06:05:31,0.02,0.03,0.00,25.19,28.58,31.38,13.75,46.13,1016.45,2022.00,3409.67,3072.08,3537.91,599.88,591.42,4.83,0000 0000 0000 0000 000000
2018-06-03 06:10:32,0.01,0.03,0.00,25.22,28.61,31.42,13.83,46.17,1016.56,2022.00,3409.09,3072.00,3537.30,600.13,591.63,4.88,0000 0000 0000 0000 000000
2018-06-03 06:15:33,0.00,0.03,0.00,25.23,28.63,31.47,13.76,46.16,1016.56,2022.00,3409.00,3071.98,3537.01,599.56,591.23,4.93,0000 0000 0000 0000 000000
2018-06-03 06:20:35,0.01,0.03,0.00,25.25,28.65,31.49,13.80,46.26,1016.61,2021.98,3408.95,3071.64,3536.99,599.97,591.46,4.98,0000 0000 0000 0000 000000
2018-06-03 06:25:36,0.03,0.04,0.00,25.26,28.67,31.52,13.82,46.19,1016.59,2021.97,3408.34,3071.08,3536.63,600.09,591.62,5.03,0000 0000 0000 0000 000000
2018-06-03 06:30:38,0.01,0.04,0.00,25.28,28.70,31.53,13.81,46.25,1016.57,2021.95,3408.01,3071.00,3536.09,599.84,591.47,5.08,0000 0000 0000 0000 000000
2018-06-03 06:35:39,-0.00,0.04,0.00,25.31,28.72,31.57,13.81,46.20,1016.55,2021.91,3407.98,3071.00,3536.00,599.83,591.27,5.13,0000 0000 0000 0000 000000
2018-06-03 06:40:40,-0.03,0.04,0.00,25.33,28.74,31.61,13.85,46.18,1016.33,2021.46,3407.49,3070.92,3535.90,600.06,591.31,5.18,0000 0000 0000 0000 000000
2018-06-03 06:45:41,0.01,0.04,0.00,25.36,28.76,31.63,13.83,46.18,1016.14,2021.11,3407.04,3070.25,3535.23,600.16,591.21,5.23,0000 0000 0000 0000 000000
2018-06-03 06:50:42,0.00,0.04,0.00,25.38,28.78,31.67,13.78,46.18,1016.13,2021.02,3406.95,3070.00,3535.00,599.89,590.82,5.28,0000 0000 0000 0000 000000
2018-06-03 06:55:43,0.01,0.04,0.00,25.40,28.81,31.66,13.85,46.15,1016.13,2021.01,3406.30,3069.99,3534.89,600.30,591.19,5.33,0000 0000 0000 0000 000000
2018-06-03 07:00:45,0.02,0.04,0.00,25.44,28.83,31.68,13.74,46.24,1016.13,2021.01,3406.02,3069.67,3534.20,599.60,590.52,5.38,0000 0000 0000 0000 000000
2018-06-03 07:05:46,0.01,0.04,0.00,25.46,28.85,31.70,13.86,46.18,1016.11,2021.00,3405.99,3069.10,3534.00,600.24,591.11,5.43,0000 0000 0000 0000 000000
2018-06-03 07:10:47,0.01,0.04,0.00,25.49,28.87,31.72,13.76,46.12,1016.10,2021.00,3405.71,3069.01,3533.98,600.05,590.73,5.48,0000 0000 0000 0000 000000
2018-06-03 07:15:49,0.01,0.04,0.00,25.52,28.90,31.75,13.72,46.09,1016.08,2021.00,3405.09,3068.99,3533.52,599.65,590.51,5.53,0000 0000 0000 0000 000000
2018-06-03 07:20:50,0.00,0.04,0.00,25.55,28.92,31.75,13.75,46.22,1016.10,2020.98,3405.00,3068.84,3533.03,600.11,590.76,5.58,0000 0000 0000 0000 000000
2018-06-03 07:25:51,0.02,0.04,0.00,25.57,28.94,31.76,13.79,46.12,1016.03,2020.93,3404.78,3068.13,3532.98,600.08,590.64,5.63,0000 0000 0000 0000 000000
2018-06-03 07:30:52,-0.01,0.04,0.00,25.60,28.96,31.76,13.83,46.13,1015.74,2020.77,3404.19,3068.01,3532.61,599.95,590.32,5.68,0000 0000 0000 0000 000000
2018-06-03 07:35:53,-0.03,0.04,0.00,25.63,28.99,31.80,13.74,46.02,1015.64,2020.34,3403.99,3067.96,3532.03,599.92,590.05,5.73,0000 0000 0000 0000 000000
2018-06-03 07:40:54,0.00,0.04,0.00,25.66,29.01,31.77,13.78,46.14,1015.66,2020.12,3403.79,3067.59,3531.99,600.34,590.54,5.78,0000 0000 0000 0000 000000
2018-06-03 07:45:55,0.02,0.04,0.00,25.69,29.03,31.79,13.77,46.08,1015.66,2020.12,3403.27,3067.18,3531.80,600.04,590.15,5.83,0000 0000 0000 0000 000000
2018-06-03 07:50:56,0.00,0.04,0.00,25.74,29.05,31.82,13.71,45.98,1015.68,2020.03,3403.01,3067.00,3531.13,599.74,589.61,5.88,0000 0000 0000 0000 000000
2018-06-03 07:55:58,0.00,0.04,0.00,25.79,29.07,31.82,13.65,46.00,1015.70,2020.00,3402.82,3066.93,3530.99,599.85,589.83,5.93,0000 0000 0000 0000 000000
2018-06-03 08:00:59,0.03,0.04,0.00,25.83,29.10,31.85,13.74,46.02,1015.64,2020.00,3402.11,3066.28,3530.61,600.04,589.75,5.98,0000 0000 0000 0000 000000
2018-06-03 08:06:00,0.01,0.04,0.00,25.86,29.12,31.86,13.76,46.03,1015.64,2019.99,3401.99,3066.01,3530.02,599.84,589.64,6.03,0000 0000 0000 0000 000000
2018-06-03 08:11:02,0.01,0.04,0.00,25.88,29.15,31.86,13.69,45.94,1015.64,2019.98,3401.53,3065.96,3529.97,600.03,589.71,6.08,0000 0000 0000 0000 000000
2018-06-03 08:16:03,0.03,0.04,0.00,25.90,29.17,31.88,13.65,45.92,1015.64,2019.95,3401.03,3065.47,3529.35,599.67,589.27,6.13,0000 0000 0000 0000 000000
2018-06-03 08:21:05,-0.03,0.04,0.00,25.90,29.20,31.93,13.74,45.90,1015.64,2019.61,3400.88,3065.01,3529.00,599.82,589.42,6.18,0000 0000 0000 0000 000000
2018-06-03 08:26:06,-0.02,0.04,0.00,25.92,29.23,31.94,13.74,46.00,1015.62,2019.13,3400.13,3064.93,3528.51,599.97,589.53,6.23,0000 0000 0000 0000 000000
2018-06-03 08:31:07,0.02,0.04,0.00,25.95,29.25,31.96,13.75,45.98,1015.54,2019.01,3400.00,3064.32,3528.02,600.06,589.55,6.28,0000 0000 0000 0000 000000
2018-06-03 08:36:09,0.01,0.04,0.00,25.97,29.28,31.99,13.77,45.99,1015.43,2019.00,3399.69,3064.01,3527.96,599.95,589.26,6.33,0000 0000 0000 0000 000000
2018-06-03 08:41:10,0.02,0.05,0.00,25.98,29.31,32.03,13.76,45.99,1015.56,2019.00,3399.04,3063.99,3527.35,600.16,589.64,6.38,0000 0000 0000 0000 000000
2018-06-03 08:46:11,0.01,0.05,0.00,26.00,29.33,32.03,13.82,46.01,1015.60,2019.00,3398.98,3063.75,3527.02,600.49,589.95,6.43,0000 0000 0000 0000 000000
2018-06-03 08:51:12,0.03,0.05,0.00,26.01,29.36,32.07,13.77,46.08,1015.40,2018.99,3398.24,3063.06,3526.69,600.10,589.36,6.48,0000 0000 0000 0000 000000
2018-06-03 08:56:13,0.00,0.05,0.00,26.02,29.38,32.10,13.75,46.03,1015.22,2018.98,3398.00,3063.00,3526.06,600.27,589.54,6.53,0000 0000 0000 0000 000000
2018-06-03 09:01:15,0.02,0.05,0.00,26.05,29.41,32.13,13.75,45.94,1015.18,2018.92,3397.50,3062.52,3525.98,599.70,588.83,6.58,0000 0000 0000 0000 000000
2018-06-03 09:06:16,-0.00,0.05,0.00,26.08,29.43,32.17,13.66,45.93,1015.33,2018.68,3397.02,3062.02,3525.29,599.79,588.94,6.63,0000 0000 0000 0000 000000
2018-06-03 09:11:18,-0.02,0.05,0.00,26.10,29.46,32.20,13.75,45.94,1015.38,2018.40,3396.81,3061.99,3525.00,600.04,589.14,6.68,0000 0000 0000 0000 000000
2018-06-03 09:16:19,0.01,0.05,0.00,26.12,29.48,32.21,13.66,45.98,1015.44,2018.08,3396.07,3061.47,3524.73,599.22,588.30,6.73,0000 0000 0000 0000 000000
2018-06-03 09:21:20,0.01,0.05,0.00,26.14,29.50,32.21,13.78,45.93,1015.36,2018.02,3395.95,3061.02,3524.03,600.45,589.44,6.78,0000 0000 0000 0000 000000
2018-06-03 09:26:21,0.01,0.05,0.00,26.15,29.52,32.24,13.72,46.06,1015.45,2018.00,3395.23,3060.96,3523.89,599.85,589.01,6.83,0000 0000 0000 0000 000000
2018-06-03 09:31:23,0.03,0.05,0.00,26.18,29.55,32.26,13.62,46.00,1015.19,2018.00,3394.95,3060.25,3523.15,599.58,588.42,6.88,0000 0000 0000 0000 000000
2018-06-03 09:36:24,0.01,0.05,0.00,26.22,29.57,32.27,13.81,45.95,1015.23,2017.99,3394.22,3060.00,3522.94,600.69,589.23,6.93,0000 0000 0000 0000 000000
2018-06-03 09:41:25,0.02,0.05,0.00,26.26,29.60,32.28,13.69,45.89,1015.25,2017.96,3393.90,3059.69,3522.15,599.96,588.73,6.99,0000 0000 0000 0000 000000
2018-06-03 09:46:26,0.01,0.06,0.00,26.28,29.63,32.31,13.76,45.95,1015.35,2017.88,3393.18,3059.04,3521.96,600.32,589.11,7.04,0000 0000 0000 0000 000000
2018-06-03 09:51:28,-0.03,0.05,0.00,26.29,29.66,32.34,13.69,45.88,1015.19,2017.40,3392.86,3058.85,3521.24,599.90,588.47,7.09,0000 0000 0000 0000 000000
2018-06-03 09:56:29,0.02,0.05,0.00,26.27,29.68,32.38,13.75,45.92,1015.16,2017.10,3392.10,3058.16,3520.95,600.14,588.84,7.14,0000 0000 0000 0000 000000
2018-06-03 10:01:30,0.01,0.06,0.00,26.27,29.71,32.46,13.74,45.98,1015.16,2017.03,3391.94,3058.00,3520.25,600.13,588.83,7.19,0000 0000 0000 0000 000000
2018-06-03 10:06:32,0.02,0.06,0.00,26.26,29.73,32.51,13.71,46.01,1015.16,2017.01,3391.20,3057.71,3520.00,599.98,588.69,7.24,0000 0000 0000 0000 000000
2018-06-03 10:11:33,0.02,0.06,0.00,26.24,29.75,32.61,13.82,46.02,1015.15,2017.00,3390.99,3057.04,3519.63,600.28,589.05,7.29,0000 0000 0000 0000 000000
2018-06-03 10:16:35,0.01,0.06,0.00,26.21,29.77,32.70,13.73,45.86,1015.15,2017.00,3390.55,3056.99,3519.05,600.03,588.91,7.34,0000 0000 0000 0000 000000
2018-06-03 10:21:36,0.02,0.06,0.00,26.20,29.79,32.80,13.74,46.04,1015.15,2016.98,3390.00,3056.41,3518.90,599.84,588.62,7.39,0000 0000 0000 0000 000000
2018-06-03 10:26:37,0.02,0.06,0.00,26.17,29.80,32.85,13.77,46.04,1015.15,2016.98,3389.62,3056.02,3518.34,600.22,589.13,7.44,0000 0000 0000 0000 000000
2018-06-03 10:31:38,0.01,0.06,0.00,26.16,29.82,32.91,13.75,45.99,1015.15,2016.98,3389.02,3056.00,3518.00,600.07,588.93,7.49,0000 0000 0000 0000 000000
2018-06-03 10:36:39,0.01,0.06,0.00,26.15,29.83,32.92,13.83,46.00,1015.15,2016.91,3388.66,3055.66,3517.68,600.19,589.20,7.54,0000 0000 0000 0000 000000
2018-06-03 10:41:40,0.02,0.06,0.00,26.13,29.85,32.93,13.75,45.95,1015.15,2016.85,3388.06,3055.07,3517.10,599.94,588.87,7.59,0000 0000 0000 0000 000000
2018-06-03 10:46:42,-0.04,0.06,0.00,26.12,29.85,32.94,13.81,45.94,1015.14,2016.47,3387.95,3054.99,3516.98,599.83,588.90,7.64,0000 0000 0000 0000 000000
2018-06-03 10:51:43,0.02,0.06,0.00,26.10,29.87,32.97,13.80,45.97,1015.12,2016.29,3387.32,3054.82,3516.56,599.81,588.75,7.69,0000 0000 0000 0000 000000
2018-06-03 10:56:44,0.01,0.06,0.00,26.08,29.87,32.99,13.77,45.95,1015.10,2016.23,3387.01,3054.16,3516.02,599.75,588.78,7.74,0000 0000 0000 0000 000000
2018-06-03 11:01:45,0.00,0.06,0.00,26.06,29.87,33.00,13.78,45.93,1015.06,2016.17,3386.75,3054.00,3515.98,600.10,589.13,7.79,0000 0000 0000 0000 000000
2018-06-03 11:06:46,0.01,0.06,0.00,26.04,29.89,33.02,13.75,46.01,1015.05,2016.09,3386.06,3053.98,3515.55,600.21,589.28,7.84,0000 0000 0000 0000 000000
2018-06-03 11:11:47,0.00,0.06,0.00,26.02,29.90,32.99,13.71,45.95,1014.90,2016.03,3386.00,3053.70,3515.04,599.53,588.62,7.89,0000 0000 0000 0000 000000
2018-06-03 11:16:49,0.03,0.07,0.00,26.02,29.90,33.00,13.79,45.99,1014.85,2016.06,3385.58,3053.10,3515.00,600.04,589.06,7.94,0000 0000 0000 0000 000000
2018-06-03 11:21:50,0.00,0.07,0.00,26.00,29.90,33.01,13.89,46.02,1014.77,2016.06,3385.03,3053.00,3514.84,600.39,589.33,7.99,0000 0000 0000 0000 000000
2018-06-03 11:26:51,0.01,0.07,0.00,25.99,29.90,33.00,13.76,45.97,1014.72,2016.05,3384.98,3052.99,3514.14,599.74,588.63,8.04,0000 0000 0000 0000 000000
2018-06-03 11:31:53,0.02,0.07,0.00,25.97,29.90,33.01,13.78,45.98,1014.68,2016.04,3384.40,3052.73,3514.00,600.13,588.99,8.09,0000 0000 0000 0000 000000
2018-06-03 11:36:54,0.01,0.07,0.00,25.93,29.90,32.97,13.76,45.98,1014.68,2016.03,3384.01,3052.11,3513.94,599.78,588.93,8.14,0000 0000 0000 0000 000000
2018-06-03 11:41:55,0.01,0.07,0.00,25.91,29.90,32.97,13.81,46.10,1014.68,2016.02,3383.94,3052.00,3513.27,600.03,589.20,8.19,0000 0000 0000 0000 000000
2018-06-03 11:46:56,0.01,0.07,0.00,25.89,29.90,33.00,13.82,46.06,1014.68,2016.01,3383.33,3052.00,3513.01,600.51,589.66,8.24,0000 0000 0000 0000 000000
2018-06-03 11:51:57,0.00,0.07,0.00,25.87,29.90,32.97,13.78,46.14,1014.66,2016.01,3383.00,3051.86,3512.99,600.36,589.57,8.29,0000 0000 0000 0000 000000
2018-06-03 11:56:59,0.02,0.07,0.00,25.85,29.90,32.98,13.85,46.04,1014.66,2016.01,3382.92,3051.23,3512.66,600.12,589.37,8.34,0000 0000 0000 0000 000000
2018-06-03 12:02:00,0.02,0.07,0.00,25.84,29.90,32.98,13.75,46.09,1014.66,2016.05,3382.43,3051.07,3512.24,599.47,588.72,8.39,0000 0000 0000 0000 000000
2018-06-03 12:07:02,0.00,0.07,0.00,25.82,29.90,32.97,13.75,46.04,1014.60,2016.05,3382.01,3051.00,3512.01,600.18,589.52,8.44,0000 0000 0000 0000 000000
2018-06-03 12:12:03,-0.00,0.07,0.00,25.82,29.89,32.95,13.81,46.14,1014.57,2016.07,3381.96,3050.99,3511.99,599.36,588.62,8.49,0000 0000 0000 0000 000000
2018-06-03 12:17:04,0.02,0.07,0.00,25.80,29.88,32.94,13.75,45.98,1014.36,2016.08,3381.39,3050.81,3511.80,600.00,589.13,8.54,0000 0000 0000 0000 000000
2018-06-03 12:22:06,0.03,0.08,0.00,25.80,29.87,32.94,13.81,46.08,1014.33,2016.04,3381.00,3050.09,3511.09,600.18,589.33,8.59,0000 0000 0000 0000 000000
2018-06-03 12:27:07,0.01,0.08,0.00,25.82,29.87,32.91,13.64,46.05,1014.38,2016.06,3380.66,3050.00,3511.00,599.38,588.64,8.64,0000 0000 0000 0000 000000
2018-06-03 12:32:08,0.01,0.08,0.00,25.82,29.87,32.91,13.73,46.08,1014.23,2016.07,3380.03,3050.00,3510.83,599.47,588.60,8.69,0000 0000 0000 0000 000000
2018-06-03 12:37:10,0.02,0.08,0.00,25.80,29.86,32.91,13.78,45.98,1014.24,2016.13,3380.00,3049.93,3510.27,600.13,589.19,8.74,0000 0000 0000 0000 000000
2018-06-03 12:42:11,0.02,0.08,0.00,25.80,29.85,32.91,13.78,45.98,1014.20,2016.21,3379.85,3049.56,3510.02,600.01,589.17,8.79,0000 0000 0000 0000 000000
2018-06-03 12:47:13,0.01,0.08,0.00,25.78,29.85,32.89,13.79,45.98,1014.18,2016.10,3379.09,3049.05,3509.95,600.38,589.36,8.84,0000 0000 0000 0000 000000
2018-06-03 12:52:14,0.01,0.08,0.00,25.77,29.85,32.89,13.80,46.05,1014.18,2016.08,3378.97,3049.00,3509.36,600.37,589.62,8.89,0000 0000 0000 0000 000000
2018-06-03 12:57:15,0.02,0.08,0.00,25.77,29.85,32.89,13.74,45.95,1014.18,2016.10,3378.42,3048.89,3509.02,599.46,588.52,8.94,0000 0000 0000 0000 000000
2018-06-03 13:02:16,0.02,0.08,0.00,25.76,29.83,32.89,13.77,46.11,1014.17,2016.12,3378.00,3048.29,3508.98,599.60,588.73,8.99,0000 0000 0000 0000 000000